Toms River, NJ

6:44 AM EDT on October 16, 2019 (GMT -0400)
Miller

Weather History for KMJX - August, 2019

Change the Weather History Date:

Friday, August 9, 2019

  Actual Average Record
Temperature  
Mean Temperature 77 °F -  
Max Temperature 89 °F 85 °F 96 °F (1983)
Min Temperature 64 °F 63 °F 45 °F (1989)
Cooling Degree Days 12    
Growing Degree Days 27 (Base 50)    
Moisture  
Dew Point 64 °F    
Average Humidity 61    
Maximum Humidity 100    
Minimum Humidity 37    
Precipitation  
Precipitation 0.01 in - - ()
Sea Level Pressure  
Sea Level Pressure 29.78 in    
Wind  
Wind Speed 5 mph (WNW)    
Max Wind Speed 14 mph    
Max Gust Speed -    
Visibility 10 miles    
Events      
Averages and records for this station are not official NWS values.
T = Trace of Precipitation, MM = Missing Value Source: NWS Daily Summary

Daily Weather History Graph

Daily Weather History Graph

Search for Another Location

Airport or City:

Astronomy

Aug. 09, 2019 Rise Set
Actual Time 6:02 AM EDT 8:01 PM EDT
Civil Twilight 5:33 AM EDT 8:31 PM EDT
Nautical Twilight 4:57 AM EDT 9:07 PM EDT
Astronomical Twilight 4:18 AM EDT 9:45 PM EDT
Moon 3:40 PM EDT (8/9) 12:58 AM EDT (8/9)
Length of Visible Light 14h 57m
Length of Day
13h 58m
Waxing Gibbous, 70% of the Moon is Illuminated
Aug 9
Waxing Gibbous
Aug 15
Full
Aug 23
Last Quarter
Aug 30
New
Sep 5
First Quarter

Hourly Weather History & Observations

Time (EDT) Temp. Heat Index Dew Point Humidity Pressure Visibility Wind Dir Wind Speed Gust Speed Precip Events Conditions
12:56 AM 68.0 °F - - N/A% 29.75 in 10.0 mi SW 4.6 mph - N/A   Clear
1:56 AM 66.9 °F - - N/A% 29.75 in 10.0 mi Calm Calm - N/A   Clear
2:56 AM - - - N/A% 29.74 in 6.0 mi Calm Calm - N/A   Haze
3:56 AM 68.0 °F - - N/A% 29.75 in 10.0 mi West 5.8 mph - N/A   Clear
4:56 AM 69.1 °F - - N/A% 29.76 in 10.0 mi WNW 3.5 mph - N/A   Scattered Clouds
5:56 AM 66.9 °F - - N/A% 29.78 in 10.0 mi WNW 5.8 mph - 0.01 in   Clear
6:56 AM 69.1 °F - - N/A% 29.79 in 10.0 mi NW 3.5 mph - N/A   Clear
7:56 AM 72.0 °F - - N/A% 29.80 in 10.0 mi NW 5.8 mph - N/A   Clear
8:56 AM 75.9 °F - 66.9 °F 74% 29.81 in 10.0 mi NNW 6.9 mph - N/A   Clear
9:56 AM 79.0 °F - 64.0 °F 60% 29.81 in 10.0 mi North 6.9 mph - N/A   Clear
10:56 AM 82.9 °F 84.4 °F 64.0 °F 53% 29.81 in 10.0 mi West 5.8 mph - N/A   Clear
11:56 AM 84.0 °F 84.9 °F 63.0 °F 49% 29.81 in 10.0 mi WNW 8.1 mph - N/A   Clear
12:56 PM 84.0 °F 84.9 °F 63.0 °F 49% 29.79 in 10.0 mi West 9.2 mph - N/A   Partly Cloudy
1:56 PM 86.0 °F 86.3 °F 62.1 °F 44% 29.78 in 10.0 mi West 13.8 mph - N/A   Partly Cloudy
2:56 PM 88.0 °F 88.4 °F 62.1 °F 42% 29.75 in 10.0 mi WSW 9.2 mph - N/A   Partly Cloudy
3:56 PM 88.0 °F 87.6 °F 60.1 °F 39% 29.75 in 10.0 mi West 11.5 mph - N/A   Partly Cloudy
4:56 PM 88.0 °F 87.1 °F 59.0 °F 37% 29.75 in 10.0 mi West 9.2 mph - N/A   Clear
5:56 PM 86.0 °F 85.4 °F 59.0 °F 40% 29.75 in 10.0 mi NW 10.4 mph - N/A   Clear
6:56 PM 82.0 °F 83.0 °F 62.1 °F 51% 29.77 in 10.0 mi NW 6.9 mph - N/A   Clear
7:56 PM 75.0 °F - 68.0 °F 79% 29.78 in 10.0 mi Calm Calm - N/A   Partly Cloudy
8:56 PM 70.0 °F - 70.0 °F 100% 29.81 in 10.0 mi Calm Calm - N/A   Clear
9:56 PM 70.0 °F - 70.0 °F 100% 29.82 in 10.0 mi Calm Calm - N/A   Partly Cloudy
10:56 PM 66.9 °F - 66.9 °F 100% 29.83 in 10.0 mi Calm Calm - N/A   Partly Cloudy
11:56 PM 64.9 °F - - N/A% 29.83 in 10.0 mi Calm Calm - N/A   Clear